KC7FQC Weather Reports


time (UTC)temp
C
wind
direction
speed
KPH
gust
KPH
rain 1hr
cm
rain 24hr
cm
rain mn
cm
humidity
%
barometer
mb
20200808092948 31 259 0.0 0.0 0.00 0.00 0.00 29 1008.7
20200808092447 31 259 0.0 0.0 0.00 0.00 0.00 29 1008.7
20200808091948 31 259 0.0 0.0 0.00 0.00 0.00 29 1008.8
20200808091503 32 259 0.0 1.6 0.00 0.00 0.00 28 1008.9
20200808090948 32 259 0.0 3.2 0.00 0.00 0.00 28 1008.8
20200808090448 32 259 1.6 3.2 0.00 0.00 0.00 28 1008.7
20200808085948 32 259 0.0 3.2 0.00 0.00 0.00 27 1008.7
20200808085447 32 259 1.6 3.2 0.00 0.00 0.00 27 1008.7
20200808084947 32 259 1.6 6.4 0.00 0.00 0.00 27 1008.7
20200808084447 32 259 3.2 6.4 0.00 0.00 0.00 27 1008.7
20200808083949 32 259 3.2 6.4 0.00 0.00 0.00 28 1008.7
20200808083448 32 259 3.2 4.8 0.00 0.00 0.00 28 1008.6
20200808082947 32 259 3.2 4.8 0.00 0.00 0.00 28 1008.7
20200808082448 32 259 3.2 4.8 0.00 0.00 0.00 28 1008.7
20200808081947 32 259 3.2 6.4 0.00 0.00 0.00 28 1008.7
20200808081447 32 259 1.6 6.4 0.00 0.00 0.00 28 1008.8
20200808080948 32 259 1.6 3.2 0.00 0.00 0.00 28 1008.9
20200808080452 32 259 1.6 3.2 0.00 0.00 0.00 28 1008.9
20200808075950 32 259 0.0 6.4 0.00 0.00 0.00 28 1008.9
20200808075447 32 259 1.6 6.4 0.00 0.00 0.00 28 1008.7
20200808074947 32 259 0.0 3.2 0.00 0.00 0.00 29 1008.7
20200808074447 32 259 0.0 1.6 0.00 0.00 0.00 30 1008.8
20200808073947 32 259 0.0 1.6 0.00 0.00 0.00 30 1008.8
20200808073503 32 259 0.0 0.0 0.00 0.00 0.00 30 1008.7
20200808072947 32 259 0.0 0.0 0.00 0.00 0.00 30 1008.6
20200808072447 32 259 0.0 0.0 0.00 0.00 0.00 30 1008.7
20200808072007 32 259 0.0 0.0 0.00 0.00 0.00 29 1008.7
20200808071503 32 259 0.0 0.0 0.00 0.00 0.00 31 1008.5
20200808070949 32 259 0.0 0.0 0.00 0.00 0.00 31 1008.6
20200808070447 33 259 0.0 0.0 0.00 0.00 0.00 31 1008.6
20200808065947 33 259 0.0 0.0 0.00 0.00 0.00 30 1008.6
20200808065447 33 259 0.0 0.0 0.00 0.00 0.00 29 1008.5
20200808064947 33 259 0.0 0.0 0.00 0.00 0.00 29 1008.4
20200808064447 33 259 0.0 0.0 0.00 0.00 0.00 29 1008.5
20200808063947 33 259 0.0 3.2 0.00 0.00 0.00 27 1008.5
20200808063513 33 259 0.0 3.2 0.00 0.00 0.00 28 1008.5
20200808062947 33 259 3.2 3.2 0.00 0.00 0.00 28 1008.5
20200808062447 33 259 0.0 0.0 0.00 0.00 0.00 29 1008.4
20200808061947 33 259 0.0 0.0 0.00 0.00 0.00 29 1008.5
20200808061447 33 259 0.0 0.0 0.00 0.00 0.00 29 1008.5
20200808060951 33 259 0.0 0.0 0.00 0.00 0.00 29 1008.5
20200808060448 33 259 0.0 4.8 0.00 0.00 0.00 29 1008.4
20200808055947 33 259 0.0 4.8 0.00 0.00 0.00 29 1008.4
20200808055506 33 259 0.0 3.2 0.00 0.00 0.00 30 1008.3
20200808055000 33 259 0.0 3.2 0.00 0.00 0.00 29 1008.3
20200808054447 33 259 3.2 3.2 0.00 0.00 0.00 30 1008.3
20200808053947 34 259 0.0 0.0 0.00 0.00 0.00 30 1008.2
20200808053447 34 259 0.0 0.0 0.00 0.00 0.00 29 1008.1
20200808052947 34 259 0.0 0.0 0.00 0.00 0.00 28 1007.9
20200808052447 34 259 0.0 0.0 0.00 0.00 0.00 29 1008.2
20200808051947 35 259 0.0 0.0 0.00 0.00 0.00 28 1008.1
20200808051448 35 259 0.0 0.0 0.00 0.00 0.00 29 1008.1
20200808050947 35 259 0.0 0.0 0.00 0.00 0.00 28 1008.1
20200808050448 35 259 0.0 0.0 0.00 0.00 0.00 28 1008.0
20200808050003 35 259 0.0 0.0 0.00 0.00 0.00 27 1008.1
20200808045447 35 259 0.0 0.0 0.00 0.00 0.00 27 1008.1
20200808044947 35 259 0.0 0.0 0.00 0.00 0.00 27 1008.0
20200808044447 35 259 0.0 0.0 0.00 0.00 0.00 26 1008.0
20200808043947 35 259 0.0 0.0 0.00 0.00 0.00 27 1007.9
20200808043447 35 259 0.0 0.0 0.00 0.00 0.00 27 1007.9
20200808042947 36 259 0.0 0.0 0.00 0.00 0.00 26 1007.7
20200808042447 36 259 0.0 0.0 0.00 0.00 0.00 26 1007.7
20200808041947 36 259 0.0 0.0 0.00 0.00 0.00 27 1007.6
20200808041447 36 259 0.0 0.0 0.00 0.00 0.00 27 1007.7
20200808040947 36 259 0.0 1.6 0.00 0.00 0.00 28 1007.6
20200808040447 36 259 0.0 1.6 0.00 0.00 0.00 28 1007.8
20200808035947 37 259 0.0 0.0 0.00 0.00 0.00 27 1007.5
20200808035448 37 259 0.0 0.0 0.00 0.00 0.00 26 1007.3
20200808034947 37 259 0.0 0.0 0.00 0.00 0.00 26 1007.2
20200808034451 37 259 0.0 0.0 0.00 0.00 0.00 26 1007.1
20200808034003 37 259 0.0 0.0 0.00 0.00 0.00 26 1007.1
20200808033502 37 259 0.0 0.0 0.00 0.00 0.00 25 1007.1
20200808032947 37 259 0.0 0.0 0.00 0.00 0.00 25 1007.1
20200808032447 38 259 0.0 0.0 0.00 0.00 0.00 24 1007.1
20200808031947 38 259 0.0 0.0 0.00 0.00 0.00 24 1007.0
20200808031504 38 259 0.0 0.0 0.00 0.00 0.00 23 1007.0
20200808031003 38 259 0.0 0.0 0.00 0.00 0.00 23 1006.9
20200808030447 38 259 0.0 0.0 0.00 0.00 0.00 23 1006.8
20200808025947 38 259 0.0 0.0 0.00 0.00 0.00 22 1006.9
20200808025447 38 259 0.0 3.2 0.00 0.00 0.00 22 1006.8
20200808024947 39 259 0.0 4.8 0.00 0.00 0.00 22 1006.6
20200808024447 39 259 1.6 6.4 0.00 0.00 0.00 22 1006.6
20200808023947 39 259 0.0 8.0 0.00 0.00 0.00 22 1006.6
20200808023505 39 259 6.4 9.7 0.00 0.00 0.00 21 1006.5
20200808023006 40 259 6.4 9.7 0.00 0.00 0.00 21 1006.6
20200808022448 40 259 6.4 12.9 0.00 0.00 0.00 21 1006.6
20200808021947 40 259 6.4 12.9 0.00 0.00 0.00 21 1006.6
20200808021449 40 259 4.8 12.9 0.00 0.00 0.00 21 1006.7
20200808020947 40 259 1.6 12.9 0.00 0.00 0.00 20 1006.5
20200808020448 40 266 4.8 12.9 0.00 0.00 0.00 20 1006.3
20200808015947 40 271 4.8 14.5 0.00 0.00 0.00 20 1006.3
20200808015447 40 218 1.6 16.1 0.00 0.00 0.00 20 1006.2
20200808014947 40 265 6.4 16.1 0.00 0.00 0.00 19 1006.2
20200808014447 40 207 6.4 11.3 0.00 0.00 0.00 18 1006.0
20200808013947 41 207 11.3 14.5 0.00 0.00 0.00 18 1005.9
20200808013447 41 213 8.0 20.9 0.00 0.00 0.00 18 1005.9
20200808012947 41 200 6.4 20.9 0.00 0.00 0.00 17 1006.0
20200808012447 41 226 14.5 17.7 0.00 0.00 0.00 18 1006.1
20200808011948 41 275 9.7 12.9 0.00 0.00 0.00 18 1006.1
20200808011447 41 236 1.6 14.5 0.00 0.00 0.00 19 1006.0
20200808010948 41 236 4.8 17.7 0.00 0.00 0.00 19 1006.1
20200808010447 41 272 8.0 17.7 0.00 0.00 0.00 18 1006.1
20200808005947 42 229 12.9 16.1 0.00 0.00 0.00 17 1006.0
20200808005447 42 232 6.4 14.5 0.00 0.00 0.00 17 1006.0
20200808004946 42 222 6.4 14.5 0.00 0.00 0.00 18 1006.0
20200808004447 42 259 1.6 8.0 0.00 0.00 0.00 18 1006.0
20200808003947 42 259 3.2 14.5 0.00 0.00 0.00 18 1006.0
20200808003447 42 259 4.8 14.5 0.00 0.00 0.00 18 1006.0
20200808003006 42 239 3.2 17.7 0.00 0.00 0.00 17 1006.1
20200808002446 42 223 6.4 17.7 0.00 0.00 0.00 17 1006.0
20200808001947 42 142 3.2 11.3 0.00 0.00 0.00 17 1006.0
20200808001448 42 108 0.0 6.4 0.00 0.00 0.00 17 1006.1
20200808000949 41 103 0.0 14.5 0.00 0.00 0.00 17 1006.2
20200808000447 41 161 1.6 17.7 0.00 0.00 0.00 16 1006.2
20200807235947 42 179 9.7 17.7 0.00 0.00 0.00 16 1006.3
20200807235447 42 217 4.8 19.3 0.00 0.00 0.00 16 1006.3
20200807234946 42 222 9.7 24.1 0.00 0.00 0.00 16 1006.5
20200807234449 42 234 9.7 24.1 0.00 0.00 0.00 16 1006.6
20200807233948 42 277 11.3 19.3 0.00 0.00 0.00 16 1006.5
20200807233446 42 205 3.2 19.3 0.00 0.00 0.00 16 1006.6
20200807232946 42 251 14.5 24.1 0.00 0.00 0.00 16 1006.6
20200807232446 42 246 9.7 25.7 0.00 0.00 0.00 16 1006.6
20200807231947 42 254 19.3 25.7 0.00 0.00 0.00 16 1006.6
20200807231446 42 213 3.2 22.5 0.00 0.00 0.00 15 1006.6
20200807230947 42 205 11.3 22.5 0.00 0.00 0.00 15 1006.7
20200807230446 43 198 6.4 20.9 0.00 0.00 0.00 15 1006.9
20200807225946 43 179 3.2 11.3 0.00 0.00 0.00 16 1006.9
20200807225446 43 173 3.2 14.5 0.00 0.00 0.00 16 1007.0
20200807224948 43 203 4.8 14.5 0.00 0.00 0.00 16 1007.1
20200807224446 43 252 12.9 12.9 0.00 0.00 0.00 15 1007.2
20200807223949 43 257 9.7 12.9 0.00 0.00 0.00 15 1007.2
20200807223446 44 261 4.8 12.9 0.00 0.00 0.00 16 1007.4
20200807222946 43 264 6.4 12.9 0.00 0.00 0.00 16 1007.4
20200807222446 43 259 3.2 16.1 0.00 0.00 0.00 16 1007.4
20200807222005 43 273 6.4 16.1 0.00 0.00 0.00 16 1007.4
20200807221446 43 273 1.6 14.5 0.00 0.00 0.00 16 1007.3
20200807220946 43 265 0.0 14.5 0.00 0.00 0.00 16 1007.3
20200807220503 42 216 6.4 14.5 0.00 0.00 0.00 17 1007.4
20200807215946 42 215 1.6 17.7 0.00 0.00 0.00 17 1007.5
20200807215446 42 209 8.0 22.5 0.00 0.00 0.00 16 1007.8
20200807214946 42 223 6.4 22.5 0.00 0.00 0.00 16 1007.9
20200807214505 42 189 8.0 20.9 0.00 0.00 0.00 16 1008.0
20200807213946 42 140 9.7 16.1 0.00 0.00 0.00 16 1007.9
20200807213447 42 206 9.7 14.5 0.00 0.00 0.00 16 1007.9
20200807212946 42 185 4.8 11.3 0.00 0.00 0.00 17 1007.9
20200807212503 42 103 1.6 17.7 0.00 0.00 0.00 17 1007.9
20200807211946 42 130 4.8 17.7 0.00 0.00 0.00 17 1008.2
20200807211446 43 183 1.6 11.3 0.00 0.00 0.00 16 1008.2
20200807210950 42 180 3.2 12.9 0.00 0.00 0.00 16 1008.4
20200807210447 43 184 8.0 12.9 0.00 0.00 0.00 16 1008.4
20200807205947 43 220 3.2 8.0 0.00 0.00 0.00 17 1008.3
20200807205448 42 219 3.2 14.5 0.00 0.00 0.00 17 1008.4
20200807205004 43 248 0.0 14.5 0.00 0.00 0.00 16 1008.5
20200807204449 43 183 6.4 11.3 0.00 0.00 0.00 17 1008.6
20200807203946 43 171 1.6 12.9 0.00 0.00 0.00 17 1008.6
20200807203448 42 161 8.0 12.9 0.00 0.00 0.00 17 1008.7
20200807203001 42 239 9.7 12.9 0.00 0.00 0.00 18 1008.8
20200807202504 42 231 9.7 12.9 0.00 0.00 0.00 18 1008.8
20200807201946 42 186 1.6 11.3 0.00 0.00 0.00 18 1008.7
20200807201448 42 174 11.3 12.9 0.00 0.00 0.00 18 1008.7
20200807200946 41 225 3.2 12.9 0.00 0.00 0.00 19 1008.8
20200807200447 41 239 0.0 12.9 0.00 0.00 0.00 19 1008.8
20200807195949 41 236 6.4 12.9 0.00 0.00 0.00 20 1008.9
20200807195447 41 201 11.3 11.3 0.00 0.00 0.00 20 1009.0
20200807194946 41 186 3.2 19.3 0.00 0.00 0.00 20 1009.2
20200807194447 41 185 4.8 19.3 0.00 0.00 0.00 20 1009.0
20200807193946 41 193 1.6 8.0 0.00 0.00 0.00 20 1009.0
20200807193501 41 202 3.2 11.3 0.00 0.00 0.00 19 1009.3
20200807192948 41 210 6.4 11.3 0.00 0.00 0.00 19 1009.4
20200807192501 41 225 3.2 4.8 0.00 0.00 0.00 20 1009.3
20200807192002 41 226 3.2 8.0 0.00 0.00 0.00 21 1009.4
20200807191446 40 226 3.2 8.0 0.00 0.00 0.00 21 1009.5
20200807190946 41 220 3.2 6.4 0.00 0.00 0.00 21 1009.4
20200807190446 41 219 0.0 14.5 0.00 0.00 0.00 21 1009.5
20200807185946 41 219 4.8 14.5 0.00 0.00 0.00 21 1009.6
20200807185446 41 219 12.9 14.5 0.00 0.00 0.00 21 1009.6
20200807184946 41 217 3.2 16.1 0.00 0.00 0.00 21 1009.7
20200807184502 40 218 11.3 16.1 0.00 0.00 0.00 22 1009.7
20200807184005 40 219 1.6 11.3 0.00 0.00 0.00 22 1009.6
20200807183446 40 218 6.4 12.9 0.00 0.00 0.00 22 1009.7
20200807183004 40 205 9.7 16.1 0.00 0.00 0.00 23 1009.8
20200807182446 39 225 6.4 16.1 0.00 0.00 0.00 23 1009.9
20200807181946 39 194 8.0 12.9 0.00 0.00 0.00 23 1010.0
20200807181505 39 171 6.4 12.9 0.00 0.00 0.00 23 1009.9
20200807180946 40 193 4.8 12.9 0.00 0.00 0.00 23 1009.8
20200807180446 39 194 0.0 12.9 0.00 0.00 0.00 23 1010.1
20200807175946 40 209 3.2 16.1 0.00 0.00 0.00 23 1010.1
20200807175447 40 209 0.0 16.1 0.00 0.00 0.00 23 1010.2
20200807174946 40 224 8.0 16.1 0.00 0.00 0.00 23 1010.0
20200807174500 40 244 1.6 14.5 0.00 0.00 0.00 24 1010.0
20200807173946 39 248 0.0 9.7 0.00 0.00 0.00 24 1010.2
20200807173448 40 248 1.6 9.7 0.00 0.00 0.00 24 1010.3
20200807172948 39 256 4.8 8.0 0.00 0.00 0.00 24 1010.3
20200807172446 38 256 4.8 11.3 0.00 0.00 0.00 25 1010.3
20200807172003 39 256 3.2 11.3 0.00 0.00 0.00 25 1010.4
20200807171447 38 257 3.2 8.0 0.00 0.00 0.00 25 1010.5
20200807171003 38 257 1.6 8.0 0.00 0.00 0.00 25 1010.6
20200807170446 38 256 1.6 8.0 0.00 0.00 0.00 25 1010.4
20200807165947 38 254 1.6 6.4 0.00 0.00 0.00 24 1010.6
20200807165447 38 254 0.0 8.0 0.00 0.00 0.00 25 1010.9
20200807164946 38 254 3.2 11.3 0.00 0.00 0.00 25 1010.8
20200807164504 38 261 3.2 11.3 0.00 0.00 0.00 25 1010.7
20200807164001 38 261 0.0 6.4 0.00 0.00 0.00 25 1010.7
20200807163446 38 261 3.2 9.7 0.00 0.00 0.00 25 1010.6
20200807162946 38 261 1.6 9.7 0.00 0.00 0.00 25 1010.5
20200807162448 37 261 0.0 9.7 0.00 0.00 0.00 26 1010.4
20200807161946 37 261 1.6 9.7 0.00 0.00 0.00 27 1010.3
20200807161447 37 261 4.8 11.3 0.00 0.00 0.00 26 1010.3
20200807160946 37 261 3.2 11.3 0.00 0.00 0.00 27 1010.3
20200807160445 36 261 1.6 9.7 0.00 0.00 0.00 26 1010.3
20200807160001 36 261 6.4 9.7 0.00 0.00 0.00 26 1010.3
20200807155448 36 261 4.8 4.8 0.00 0.00 0.00 25 1010.4
20200807154946 36 261 3.2 6.4 0.00 0.00 0.00 25 1010.4
20200807154454 36 261 4.8 6.4 0.00 0.00 0.00 24 1010.4
20200807153946 35 261 4.8 6.4 0.00 0.00 0.00 24 1010.3
20200807153446 35 261 0.0 4.8 0.00 0.00 0.00 24 1010.4
20200807152946 35 261 0.0 4.8 0.00 0.00 0.00 23 1010.4
20200807152447 35 261 0.0 4.8 0.00 0.00 0.00 24 1010.1
20200807151945 35 261 0.0 4.8 0.00 0.00 0.00 24 1010.1
20200807151446 34 261 1.6 3.2 0.00 0.00 0.00 24 1010.1
20200807150947 33 261 0.0 4.8 0.00 0.00 0.00 24 1009.9
20200807150500 33 261 1.6 4.8 0.00 0.00 0.00 24 1009.9
20200807145946 33 261 0.0 6.4 0.00 0.00 0.00 25 1009.9
20200807145446 32 261 3.2 6.4 0.00 0.00 0.00 25 1009.8
20200807144947 32 261 1.6 4.8 0.00 0.00 0.00 25 1009.8
20200807144445 32 261 3.2 4.8 0.00 0.00 0.00 25 1009.8
20200807143945 32 261 1.6 3.2 0.00 0.00 0.00 26 1009.7
20200807143445 31 261 0.0 3.2 0.00 0.00 0.00 26 1009.7
20200807142948 31 261 3.2 3.2 0.00 0.00 0.00 24 1009.5
20200807142446 31 261 1.6 1.6 0.00 0.00 0.00 27 1009.4
20200807141945 30 261 0.0 1.6 0.00 0.00 0.00 29 1009.4
20200807141445 30 261 0.0 1.6 0.00 0.00 0.00 30 1009.2
20200807140945 29 261 0.0 1.6 0.00 0.00 0.00 33 1009.3
20200807140501 28 261 0.0 3.2 0.00 0.00 0.00 34 1009.1
20200807140001 28 261 0.0 3.2 0.00 0.00 0.00 35 1009.1
20200807135445 27 261 0.0 0.0 0.00 0.00 0.00 34 1009.0
20200807135004 27 261 0.0 1.6 0.00 0.00 0.00 32 1009.0
20200807134445 27 261 0.0 3.2 0.00 0.00 0.00 34 1009.0
20200807133945 27 261 0.0 3.2 0.00 0.00 0.00 34 1008.7
20200807133445 27 261 0.0 3.2 0.00 0.00 0.00 35 1008.8
20200807132945 27 261 0.0 0.0 0.00 0.00 0.00 35 1008.8
20200807132445 26 261 0.0 0.0 0.00 0.00 0.00 35 1008.7
20200807131946 26 261 0.0 0.0 0.00 0.00 0.00 33 1008.6
20200807131446 26 261 0.0 0.0 0.00 0.00 0.00 33 1008.6
20200807130945 26 261 0.0 1.6 0.00 0.00 0.00 34 1008.4
20200807130447 26 261 0.0 1.6 0.00 0.00 0.00 33 1008.4
20200807125947 26 261 1.6 1.6 0.00 0.00 0.00 32 1008.2
20200807125501 26 261 0.0 0.0 0.00 0.00 0.00 33 1008.3
20200807124945 26 261 0.0 1.6 0.00 0.00 0.00 32 1008.1
20200807124447 26 261 0.0 1.6 0.00 0.00 0.00 32 1007.9
20200807124001 26 261 0.0 1.6 0.00 0.00 0.00 33 1007.9
20200807123445 26 261 0.0 3.2 0.00 0.00 0.00 33 1007.7
20200807122945 26 261 1.6 4.8 0.00 0.00 0.00 33 1007.5
20200807122450 26 261 1.6 4.8 0.00 0.00 0.00 33 1007.4
20200807122004 26 261 0.0 1.6 0.00 0.00 0.00 33 1007.2
20200807121445 26 261 0.0 0.0 0.00 0.00 0.00 32 1007.3
20200807120946 26 261 0.0 0.0 0.00 0.00 0.00 31 1007.2
20200807120446 26 261 0.0 0.0 0.00 0.00 0.00 33 1007.2
20200807115946 26 261 0.0 0.0 0.00 0.00 0.00 33 1007.1
20200807115445 26 261 0.0 0.0 0.00 0.00 0.00 33 1007.0
20200807114946 26 261 0.0 0.0 0.00 0.00 0.00 31 1006.7
20200807114445 26 261 0.0 3.2 0.00 0.00 0.00 32 1006.7
20200807113945 26 261 0.0 3.2 0.00 0.00 0.00 32 1006.8
20200807113445 26 261 0.0 1.6 0.00 0.00 0.00 32 1006.8
20200807112948 26 261 0.0 0.0 0.00 0.00 0.00 33 1006.8
20200807112445 26 261 0.0 1.6 0.00 0.00 0.00 33 1006.8
20200807111946 26 261 0.0 1.6 0.00 0.00 0.00 34 1006.7
20200807111500 26 261 0.0 0.0 0.00 0.00 0.00 37 1006.7
20200807110946 26 261 0.0 0.0 0.00 0.00 0.00 37 1006.6
20200807110445 26 261 0.0 0.0 0.00 0.00 0.00 38 1006.6
20200807105945 26 261 0.0 0.0 0.00 0.00 0.00 38 1006.7
20200807105445 26 261 0.0 0.0 0.00 0.00 0.00 38 1006.7
20200807104956 26 261 0.0 1.6 0.00 0.00 0.00 38 1006.6
20200807104445 26 261 0.0 1.6 0.00 0.00 0.00 38 1006.5
20200807103945 26 261 0.0 0.0 0.00 0.00 0.00 36 1006.5
20200807103516 26 261 0.0 0.0 0.00 0.00 0.00 37 1006.5
20200807102945 26 261 0.0 0.0 0.00 0.00 0.00 37 1006.5
20200807102447 26 261 0.0 1.6 0.00 0.00 0.00 37 1006.4
20200807102000 26 261 0.0 1.6 0.00 0.00 0.00 36 1006.4
20200807101445 26 261 0.0 0.0 0.00 0.00 0.00 36 1006.3
20200807101001 26 261 0.0 3.2 0.00 0.00 0.00 36 1006.4
20200807100445 27 261 0.0 3.2 0.00 0.00 0.00 37 1006.5
20200807100006 27 261 0.0 0.0 0.00 0.00 0.00 36 1006.4
20200807095445 27 261 0.0 0.0 0.00 0.00 0.00 35 1006.4
20200807094945 27 261 0.0 0.0 0.00 0.00 0.00 34 1006.4
20200807094446 27 261 0.0 0.0 0.00 0.00 0.00 34 1006.6
20200807093945 27 261 0.0 0.0 0.00 0.00 0.00 35 1006.6
20200807093445 27 261 0.0 0.0 0.00 0.00 0.00 34 1006.6